Back to catalog

FENGYUN 1C DEB

AliveSSO
NORAD 31163·DEBRIS·🇨🇳 China

Launched May 10, 1999 from Taiyuan Satellite Launch Center

Loading…

Next Passes (next 24 hours)

TLE

FreshSource: Space-Track

Epoch: Sep 11, 2026, 11:23 UTC

1 31163U 99025BHR 26254.47445320  .00000681  00000-0  26357-3 0  9998
2 31163  98.9464 136.2918 0053406 176.4635 183.6936 14.32691491686462

Track FENGYUN 1C DEB in real time with AllMySat

Download on the App Store